sat.trackr.live / text

‹ back to catalog

STARLINK-33696

NORAD 63463 · 2025-070D

PAYLOAD ACTIVE UNKNOWN

§ Identity

Operator
Country
US
Launch date
2025-04-06
Launch site
AFETR
Launch vehicle
Mass (kg)
RCS (m²)

Purposes: comms

External: N2YO · Heavens-Above · Gunter

§ Orbital elements

Epoch: 2026-09-20T23:31:19.914240Z

Period
94.27 min
Inclination
42.9981°
Eccentricity
0.0000352
Mean motion
15.27568918 rev/d
Perigee alt
482.8 km
Apogee alt
483.3 km
Semi-major
6,861.2 km
B*
5.8087e-4
RAAN
236.9038°
Arg perigee
239.4992°
Mean anomaly
120.5825°
Rev number
8,284

§ Raw data

STARLINK-336961 63463U 25070D   26263.98009160  .00015751  00000+0  58087-3 0  99972 63463  42.9981 236.9038 0000352 239.4992 120.5825 15.27568918 82843

JSON: /api/v1/satellites/63463 · /tle

For live sub-satellite position, see the globe view (requires WebGL).

§ Visibility from observer

Set your observer location to see the next 7 days of passes ≥ 10°. The values pass through the URL so the page stays shareable.

No JS? Fill the form by hand. The geolocation button needs JavaScript.